St. Paul, MN

12:12 PM CDT on August 22, 2017 (GMT -0500)
Saint Paul Downtown-Holman

Weather History for KSTP - September, 2013

Change the Weather History Date:

Monday, September 30, 2013

  Actual Average Record
Temperature  
Mean Temperature 68 °F -  
Max Temperature 79 °F 63 °F 84 °F (2002)
Min Temperature 57 °F 42 °F 33 °F (2003)
Cooling Degree Days 3    
Growing Degree Days 18 (Base 50)    
Moisture  
Dew Point 49 °F    
Average Humidity 53    
Maximum Humidity 70    
Minimum Humidity 36    
Precipitation  
Precipitation 0.00 in - - ()
Sea Level Pressure  
Sea Level Pressure 29.68 in    
Wind  
Wind Speed 11 mph (SSE)    
Max Wind Speed 20 mph    
Max Gust Speed 30 mph    
Visibility 10 miles    
Events      
Averages and records for this station are not official NWS values.
T = Trace of Precipitation, MM = Missing Value Source: NWS Daily Summary

Daily Weather History Graph

Daily Weather History Graph

Search for Another Location

Airport or City:

Trip Planner

Search our weather history database for the weather conditions in past years. The results will help you decide how hot, cold, wet, or windy it might be!

Date:

Astronomy

Sep. 30, 2013 Rise Set
Actual Time 7:09 AM CDT 6:54 PM CDT
Civil Twilight 6:40 AM CDT 7:23 PM CDT
Nautical Twilight 6:06 AM CDT 7:57 PM CDT
Astronomical Twilight 5:31 AM CDT 8:31 PM CDT
Moon 2:37 AM CDT (9/30) 4:33 PM CDT (9/30)
Length of Visible Light 12h 43m
Length of Day
11h 44m
Waning Crescent, 19% of the Moon is Illuminated
Sep 30
Waning Crescent
Oct 4
New
Oct 11
First Quarter
Oct 18
Full
Oct 26
Last Quarter

Hourly Weather History & Observations

Time (CDT) Temp. Dew Point Humidity Pressure Visibility Wind Dir Wind Speed Gust Speed Precip Events Conditions
12:53 AM 61.0 °F 46.0 °F 58% 29.81 in 10.0 mi South 10.4 mph - N/A   Clear
1:53 AM 59.0 °F 46.0 °F 62% 29.80 in 10.0 mi SSE 6.9 mph - N/A   Clear
2:53 AM 57.9 °F 46.9 °F 67% 29.78 in 10.0 mi SE 8.1 mph - N/A   Clear
3:53 AM 59.0 °F 46.9 °F 64% 29.76 in 10.0 mi SSE 8.1 mph - N/A   Clear
4:53 AM 57.9 °F 46.9 °F 67% 29.74 in 10.0 mi SSE 10.4 mph - N/A   Clear
5:53 AM 57.9 °F 46.9 °F 67% 29.73 in 10.0 mi SSE 13.8 mph - N/A   Clear
6:53 AM 57.0 °F 46.9 °F 69% 29.72 in 10.0 mi SE 8.1 mph - N/A   Clear
7:53 AM 57.9 °F 48.0 °F 70% 29.72 in 10.0 mi SSE 9.2 mph - N/A   Clear
8:53 AM 61.0 °F 48.9 °F 64% 29.72 in 10.0 mi SSE 8.1 mph - N/A   Clear
9:53 AM 64.0 °F 48.0 °F 56% 29.70 in 10.0 mi South 15.0 mph 25.3 mph N/A   Clear
10:53 AM 68.0 °F 50.0 °F 52% 29.69 in 10.0 mi South 11.5 mph - N/A   Clear
11:53 AM 71.1 °F 48.9 °F 45% 29.68 in 10.0 mi South 19.6 mph 29.9 mph N/A   Clear
12:48 PM 73.4 °F 50.0 °F 44% 29.67 in 10.0 mi South 18.4 mph 26.5 mph N/A   Partly Cloudy
12:53 PM 73.0 °F 50.0 °F 44% 29.66 in 10.0 mi South 19.6 mph 26.5 mph N/A   Partly Cloudy
1:53 PM 75.9 °F 51.1 °F 42% 29.64 in 10.0 mi South 17.3 mph 25.3 mph N/A   Clear
2:53 PM 78.1 °F 51.1 °F 39% 29.62 in 10.0 mi South 16.1 mph 24.2 mph N/A   Clear
3:53 PM 79.0 °F 51.1 °F 38% 29.62 in 10.0 mi South 16.1 mph 24.2 mph N/A   Clear
4:53 PM 79.0 °F 50.0 °F 36% 29.61 in 10.0 mi South 18.4 mph 25.3 mph N/A   Clear
5:53 PM 77.0 °F 51.1 °F 40% 29.61 in 10.0 mi South 13.8 mph 21.9 mph N/A   Clear
6:53 PM 73.0 °F 51.1 °F 46% 29.62 in 10.0 mi SSE 10.4 mph - N/A   Clear
7:53 PM 70.0 °F 51.1 °F 51% 29.63 in 10.0 mi SSE 11.5 mph - N/A   Clear
8:53 PM 68.0 °F 50.0 °F 52% 29.64 in 10.0 mi SSE 12.7 mph - N/A   Clear
9:53 PM 66.0 °F 50.0 °F 56% 29.65 in 10.0 mi SSE 8.1 mph - N/A   Clear
10:53 PM 66.9 °F 48.9 °F 52% 29.64 in 10.0 mi South 9.2 mph - N/A   Clear
11:53 PM 68.0 °F 48.9 °F 50% 29.64 in 10.0 mi South 11.5 mph - N/A   Clear